Showing default

EOS-8, 60454

Orbit data source: Space-Track

EOS-8, 60454 is a payload satellite owned by ISRO (IN) in LEO that was launched on Fri, 16 Aug 2024 UTC via an SSLV launch vehicle from the Sirharikota (SRI). Payload-class satellites include a variety of spacecraft equipped with specific instruments for various scientific and technological missions. These include communications satellites like Starlink; space stations such as the ISS; scientific satellites like the Hubble; Earth observation satellites from companies like Planet Labs, Umbra, and HawkEye 360; GPS; miniature CubeSats for education and research; and military/defense satellites.

Loading next visibility...
Identifier
60454, 2024-147A
Orbit
LEO
Last TLE update
1 day ago
Origin
Manufacturer
ISRO SAC/Banga
Mission
Operational Civil Imaging
Bus & Motor
IMS-1, Unknown motor
Mass
176 kg wet, ~176 kg dry
Launch date (UTC)
2024-08-16 (10 months ago)
Launch vehicle
SSLV
Launch site
Sirharikota (SRI)
Object type
Payload
Rocket body
Debris
Shape & HBR
Box + 2 Pan, 3 m
Radar Cross Section
0.935 m², Large (>1 m²)

Expand to show TLE details & history

TLE from 1 day ago
0 EOS-8
1 60454U 24147A   25162.60862312  .00017640  00000-0  39764-3 0  9991
2 60454  37.3800 229.8312 0003556 347.7126  12.3550 15.42544723 45785
Epoch: 2025-06-11T14:36Z
TLE epoch observation values (Epoch: 2025-06-11T14:36:25.037Z)
Latitude
-0.00001°
Longitude
110.53819°
Altitude
435.387 km
Speed
7.654 km/s
True Right ascension
15h 19m 19s
True Declination
0° 00' 00"
Sunlit
Object was in full shadow at epoch
Visualization orbit readout
Latitude
-36.62235°
Longitude
-0.51004°
Altitude
448.861 km
Speed
7.644 km/s
Apparent Right ascension
10h 29m 02s
Apparent Declination
-46° 07' 45"
Sunlit
Object is in daylight
Visualization observer readout
Local Sidereal Time
01:25:41
Azimuth
115.848° SE
Elevation
-57.553°
Doppler factor
1
Orbital elements
Apogee altitude
443.921 km
Perigee altitude
439.071 km
Semi-major axis
6,819.633 km
Eccentricity
0.00036
Inclination
37.38°
RAAN
229.8312°
Arg. of periapsis
347.7126°
True anomaly
Unknown
Mean anomaly
12.355°
Eccentric anomaly
Unknown
Mean motion
3.85391 °/min
Orbital period
93.41 mins
BSTAR
0.00039764
Loading maneuver chart data...
Loading SW <> Apogee altitude chart data...
Loading historical data...
Loading historical data...
Loading historical data...
Loading historical data...
Loading historical data...
Loading historical data...
Loading historical data...
Other satellites on launch #147 in the year 2024 (2024-08-16 UTC)

EOS-8 Visibility forecast

Observer location: undefined°, undefined°

Span
Click to sort rows by Start time (UTC) header in descending order
Start Az.
Max El. time (UTC)
Max El. Az.
Max El.
End time (UTC)
End Az.
5 mins2025-06-13 08:50:23.578Z232.095° WSW2025-06-13 08:52:23.578Z178.194° S33.636°2025-06-13 08:55:23.578Z98.962° ESE
5 mins2025-06-13 10:28:23.578Z256.703° W2025-06-13 10:30:23.578Z208.915° SW37.913°2025-06-13 10:33:23.578Z109.247° ESE
4 mins2025-06-13 12:07:23.578Z238.112° WSW2025-06-13 12:08:23.578Z211.973° SW24.397°2025-06-13 12:11:23.578Z142.907° SSE
|